Home > Weather > Sterling Heights > Past weeks

Flag for USA Past Weather in Sterling Heights, Michigan, USA — Yesterday and Last 2 Weeks

Now
69 °F

Clear.


Feels Like: 69 °F
Forecast: 70 / 86 °F
Wind: 6 mph from Northwest

Location: Selfridge Air National Guard Base

Current Time: Jul 28, 2016 at 2:51:23 AM

Latest Report: Jul 28, 2016 at 1:58 AM


Visibility: 10 mi

Pressure: 29.91 "Hg

Humidity: 87%

Dew Point: 65 °F

Location of Sterling HeightsLocation

Past Weather in Sterling Heights — Graph

°F

Sterling Heights Temperature Yesterday

Maximum temperature yesterday: 88 °F (at 2:58 PM)
Minimum temperature yesterday: 66 °F (at 5:58 AM)
Average temperature yesterday: 79 °F

High & Low Weather Summary for the Past Weeks

 TemperatureHumidityPressure
High93 °F (Jul 22, 3:58 PM)99% (Jul 22, 6:58 AM)30.27 "Hg (Jul 22, 6:58 AM)
Low54 °F (Jul 20, 5:58 AM)24% (Jul 20, 7:58 AM)29.74 "Hg (Jul 14, 5:58 AM)
Average76 °F70%29.99 "Hg
* Reported Jul 13 1:58 AM — Jul 28 1:58 AM, Sterling Heights, Weather by CustomWeather, © 2016

Note: Actual official high and low records may vary slightly from our data, if they occured in-between our weather recording intervals... More about our weather records

Advertising

Sterling Heights Weather History for the Previous 24 Hours

Scroll right to see more
 ConditionsComfort  
Time TempWeatherWind HumidityBarometerVisibility
1:58 AM
Thu, Jul 28
69 °FClear.6 mph87%29.91 "Hg10 mi
12:58 AM71 °FClear.7 mph86%29.93 "Hg10 mi
11:58 PM
Wed, Jul 27
73 °FClear.3 mph83%29.92 "Hg10 mi
10:58 PM74 °FPassing clouds.7 mph79%29.93 "Hg10 mi
9:58 PM75 °FPassing clouds.5 mph77%29.93 "Hg10 mi
8:58 PM77 °FBroken clouds.7 mph71%29.92 "Hg10 mi
7:58 PM82 °FScattered showers. Broken clouds.8 mph68%29.91 "Hg10 mi
6:58 PM85 °FPartly sunny.5 mph56%29.90 "Hg10 mi
5:58 PM86 °FPassing clouds.7 mph50%29.91 "Hg10 mi
4:58 PM88 °FScattered clouds.7 mph47%29.92 "Hg10 mi
3:58 PM88 °FScattered clouds.9 mph46%29.92 "Hg10 mi
2:58 PM88 °FScattered clouds.10 mph48%29.94 "Hg10 mi
1:58 PM88 °FScattered clouds.8 mph45%29.96 "Hg10 mi
12:58 PM88 °FScattered clouds.8 mph47%29.97 "Hg10 mi
11:58 AM85 °FPassing clouds.7 mph50%29.98 "Hg10 mi
10:56 AM85 °FPassing clouds.7 mph54%29.99 "Hg10 mi
9:58 AM82 °FPassing clouds.5 mph57%30.00 "Hg10 mi
8:58 AM79 °FSunny.3 mph60%30.00 "Hg10 mi
7:58 AM74 °FSunny.3 mph71%30.00 "Hg8 mi
6:58 AM68 °FClear.3 mph84%30.00 "Hg10 mi
5:58 AM66 °FClear.2 mph86%29.98 "Hg10 mi
4:58 AM67 °FClear.2 mph83%29.97 "Hg10 mi
3:58 AM71 °FClear.3 mph75%29.97 "Hg10 mi
2:58 AM72 °FClear.7 mph73%29.97 "Hg10 mi
Weather by CustomWeather, © 2016

See weather overviewHow to use our weather pages